Flag for Australia Weather past 2 weeks in Lord Howe Island, Lord Howe Island, Australia

Now
67 °F

Partly sunny.


Feels Like: 67 °F
Forecast: 64 / 66 °F
Wind: 8 mph from Southwest

Location: Lord Howe Island

Current Time: Aug 31, 2014 at 4:59:40 PM

Latest Report: Aug 31, 2014 at 3:00 PM


Visibility: 17 mi

Pressure: 29.94 "Hg

Humidity: 65%

Dew point: 55 °F

Location of Lord Howe IslandLocation

Historic Weather in Lord Howe Island — Graph

°F

Lord Howe Island temperature yesterday

Maximum temperature yesterday: 67 °F (at 1:30 PM)
Minimum temperature yesterday: 62 °F (at 12:00 AM)
Average temperature yesterday: 64 °F

Past Weeks' High & Low Weather Summary

 TemperatureHumidityPressure
High70 °F (Aug 18, 12:00 PM)95% (Aug 17, 9:00 PM)30.40 "Hg (Aug 17, 9:00 PM)
Low58 °F (Aug 18, 7:30 PM)44% (Aug 21, 1:30 PM)29.66 "Hg (Aug 19, 3:00 AM)
Average63 °F72%30.02 "Hg
* Reported Aug 16 3:00 PM — Aug 31 3:00 PM, Lord Howe Island, Weather by CustomWeather, © 2014

Note: Actual official high and low records may vary slightly from our data, if they occured in-between our weather recording intervals... More about our weather records

Advertising

Lord Howe Island weather history for previous 24 hours

 ConditionsComfort  
Time TempWeatherWind HumidityBarometerVisibility
3:00 PM
Aug 31
67 °FPartly sunny.8 mph65%29.94 "Hg17 mi
1:30 PM68 °FMild.6 mph61%29.94 "HgN/A
12:00 PM67 °FPartly sunny.5 mph72%29.96 "Hg16 mi
10:30 AM65 °FMild.6 mph68%29.97 "HgN/A
9:00 AM66 °FScattered clouds.7 mph65%29.97 "Hg16 mi
7:30 AM65 °FMild.6 mph65%29.95 "HgN/A
6:00 AM63 °FPassing clouds.5 mph74%29.92 "Hg16 mi
4:30 AM63 °FMild.8 mph76%29.90 "HgN/A
3:00 AM63 °FOvercast.10 mph77%29.88 "HgN/A
1:30 AM62 °FCool.7 mph77%29.88 "HgN/A
12:00 AM62 °FOvercast.7 mph81%29.88 "HgN/A
10:30 PM
Aug 30
63 °FMild.9 mph76%29.87 "HgN/A
9:00 PM63 °FOvercast.8 mph75%29.86 "HgN/A
7:30 PM63 °FMild.8 mph80%29.84 "HgN/A
6:00 PM64 °FOvercast.7 mph77%29.81 "HgN/A
4:30 PM65 °FMild.10 mph78%29.78 "HgN/A
Weather by CustomWeather, © 2014

See weather overviewHow to use our weather pages